When you browse on this site, cookies collect data to enhance your experience and personalize the content and advertising you see.
Visit our Privacy Policy to learn more. By continuing to use the site, you agree to this use of cookies and data.
  • In Czech Republic
  • List of Countries
  • For 7 days
  • Water Temperature
  • Satellite Maps
  • Weather Map
  • Weather Widgets
  • user-avatar
    Login

    Hourly Weather Oran

    Today, 20 January, Sunday

    Time Temperature Precipitation Wind Pressure Humidity
    00:00 +12°C° 0.2 mm 7 mps 750 mmHg 82%
    01:00 +12°C° 0.3 mm 7 mps 750 mmHg 79%
    02:00 +12°C° 0.3 mm 7 mps 749 mmHg 76%
    03:00 +13°C° 0.3 mm 6 mps 748 mmHg 74%
    04:00 +11°C° 1.9 mm 6 mps 748 mmHg 77%
    05:00 +11°C° 1.9 mm 7 mps 748 mmHg 80%
    06:00 +11°C° 1.9 mm 7 mps 748 mmHg 83%
    07:00 +11°C° 0.2 mm 8 mps 748 mmHg 82%
    08:00 +12°C° 0.2 mm 10 mps 747 mmHg 80%
    09:00 +13°C° 0.2 mm 11 mps 747 mmHg 78%
    10:00 +13°C° 0.7 mm 12 mps 747 mmHg 75%
    11:00 +14°C° 0.7 mm 13 mps 747 mmHg 72%
    12:00 +14°C° 0.7 mm 15 mps 747 mmHg 69%
    13:00 +14°C° 0.2 mm 14 mps 746 mmHg 67%
    14:00 +14°C° 0.2 mm 14 mps 746 mmHg 66%
    15:00 +14°C° 0.2 mm 14 mps 746 mmHg 64%
    16:00 +14°C° 0.7 mm 13 mps 747 mmHg 69%
    17:00 +13°C° 0.7 mm 12 mps 747 mmHg 75%
    18:00 +12°C° 0.7 mm 11 mps 748 mmHg 80%
    19:00 +12°C° 1.6 mm 9 mps 749 mmHg 80%
    20:00 +11°C° 1.6 mm 8 mps 750 mmHg 80%
    21:00 +11°C° 1.6 mm 6 mps 750 mmHg 81%
    22:00 +12°C° 0.2 mm 5 mps 751 mmHg 79%
    23:00 +12°C° 0.2 mm 3 mps 751 mmHg 78%

    Tomorrow, 21 January, Monday

    Time Temperature Precipitation Wind Pressure Humidity
    00:00 +12°C° 0.2 mm 2 mps 752 mmHg 76%
    01:00 +11°C° 0.1 mm 3 mps 752 mmHg 74%
    02:00 +11°C° 0.1 mm 3 mps 752 mmHg 71%
    03:00 +11°C° 0.1 mm 4 mps 752 mmHg 69%
    04:00 +11°C° 0 mm 4 mps 752 mmHg 69%
    05:00 +11°C° 0 mm 4 mps 752 mmHg 69%
    06:00 +11°C° 0 mm 4 mps 753 mmHg 69%
    07:00 +11°C° 0 mm 4 mps 753 mmHg 67%
    08:00 +12°C° 0 mm 4 mps 753 mmHg 65%
    09:00 +12°C° 0 mm 4 mps 754 mmHg 63%
    10:00 +12°C° 0 mm 4 mps 754 mmHg 59%
    11:00 +13°C° 0 mm 5 mps 754 mmHg 55%
    12:00 +13°C° 0 mm 5 mps 754 mmHg 52%
    13:00 +13°C° 0 mm 5 mps 754 mmHg 51%
    14:00 +13°C° 0 mm 5 mps 754 mmHg 51%
    15:00 +13°C° 0 mm 5 mps 754 mmHg 50%
    16:00 +12°C° 0 mm 4 mps 754 mmHg 53%
    17:00 +11°C° 0 mm 3 mps 754 mmHg 56%
    18:00 +10°C° 0 mm 3 mps 754 mmHg 59%
    19:00 +10°C° 0 mm 2 mps 755 mmHg 61%
    20:00 +10°C° 0 mm 2 mps 755 mmHg 63%
    21:00 +10°C° 0 mm 2 mps 755 mmHg 64%
    22:00 +10°C° 0.2 mm 3 mps 755 mmHg 65%
    23:00 +10°C° 0.2 mm 3 mps 755 mmHg 66%

    Day after tomorrow, 22 January, Tuesday

    Time Temperature Precipitation Wind Pressure Humidity
    00:00 +10°C° 0.2 mm 4 mps 755 mmHg 66%
    01:00 +10°C° 0.2 mm 4 mps 755 mmHg 66%
    02:00 +10°C° 0.2 mm 4 mps 755 mmHg 66%
    03:00 +9°C° 0.2 mm 5 mps 755 mmHg 66%
    04:00 +8°C° 0 mm 4 mps 755 mmHg 66%
    05:00 +9°C° 0 mm 3 mps 755 mmHg 66%
    06:00 +8°C° 0 mm 3 mps 755 mmHg 67%
    07:00 +9°C° 0 mm 3 mps 755 mmHg 65%
    08:00 +10°C° 0 mm 4 mps 755 mmHg 63%
    09:00 +11°C° 0 mm 4 mps 755 mmHg 61%
    10:00 +12°C° 0 mm 5 mps 755 mmHg 59%
    11:00 +13°C° 0 mm 6 mps 755 mmHg 57%
    12:00 +14°C° 0 mm 7 mps 755 mmHg 55%
    13:00 +13°C° 0 mm 8 mps 754 mmHg 55%
    14:00 +13°C° 0 mm 9 mps 753 mmHg 55%
    15:00 +13°C° 0 mm 10 mps 752 mmHg 56%
    16:00 +12°C° 0 mm 10 mps 751 mmHg 60%
    17:00 +11°C° 0 mm 11 mps 751 mmHg 65%
    18:00 +11°C° 0 mm 11 mps 751 mmHg 70%
    19:00 +11°C° 0 mm 11 mps 751 mmHg 69%
    20:00 +10°C° 0 mm 12 mps 751 mmHg 68%
    21:00 +12°C° 0 mm 12 mps 751 mmHg 67%
    22:00 +12°C° 0.1 mm 12 mps 751 mmHg 69%
    23:00 +10°C° 0.1 mm 12 mps 750 mmHg 70%

    23 January, Wednesday

    Time Temperature Precipitation Wind Pressure Humidity
    00:00 +10°C° 0.1 mm 12 mps 750 mmHg 72%
    01:00 +10°C° 0.5 mm 12 mps 749 mmHg 73%
    02:00 +10°C° 0.5 mm 12 mps 749 mmHg 74%
    03:00 +10°C° 0.5 mm 13 mps 749 mmHg 75%
    04:00 +10°C° 0.5 mm 12 mps 749 mmHg 74%
    05:00 +11°C° 0.5 mm 11 mps 749 mmHg 72%
    06:00 +11°C° 0.5 mm 10 mps 749 mmHg 70%
    07:00 +11°C° 0.1 mm 10 mps 749 mmHg 70%
    08:00 +12°C° 0.1 mm 10 mps 749 mmHg 71%
    09:00 +12°C° 0.1 mm 9 mps 750 mmHg 71%
    10:00 +12°C° 0 mm 11 mps 749 mmHg 69%
    11:00 +13°C° 0 mm 13 mps 749 mmHg 67%
    12:00 +13°C° 0 mm 15 mps 748 mmHg 65%
    13:00 +13°C° 0 mm 15 mps 748 mmHg 63%
    14:00 +13°C° 0 mm 15 mps 747 mmHg 61%
    15:00 +13°C° 0 mm 16 mps 746 mmHg 59%
    16:00 +11°C° 0 mm 15 mps 747 mmHg 62%
    17:00 +12°C° 0 mm 14 mps 747 mmHg 65%
    18:00 +12°C° 0 mm 12 mps 747 mmHg 68%
    19:00 +12°C° 0 mm 12 mps 748 mmHg 69%
    20:00 +12°C° 0 mm 13 mps 748 mmHg 70%
    21:00 +12°C° 0 mm 13 mps 748 mmHg 71%
    22:00 +12°C° 0 mm 13 mps 748 mmHg 72%
    23:00 +12°C° 0 mm 13 mps 747 mmHg 73%

    24 January, Thursday

    Time Temperature Precipitation Wind Pressure Humidity
    00:00 +12°C° 0 mm 14 mps 747 mmHg 74%
    01:00 +12°C° 0 mm 14 mps 746 mmHg 74%
    02:00 +12°C° 0 mm 14 mps 746 mmHg 75%
    03:00 +12°C° 0 mm 13 mps 746 mmHg 76%
    04:00 +12°C° 0 mm 13 mps 745 mmHg 76%
    05:00 +12°C° 0 mm 12 mps 745 mmHg 77%
    06:00 +10°C° 0 mm 12 mps 745 mmHg 78%
    07:00 +12°C° 0.1 mm 12 mps 745 mmHg 76%
    08:00 +12°C° 0.1 mm 13 mps 745 mmHg 75%
    09:00 +13°C° 0.1 mm 13 mps 746 mmHg 74%
    10:00 +13°C° 0.7 mm 13 mps 746 mmHg 71%
    11:00 +13°C° 0.7 mm 12 mps 746 mmHg 69%
    12:00 +14°C° 0.7 mm 12 mps 746 mmHg 66%
    13:00 +13°C° 1.2 mm 11 mps 746 mmHg 67%
    14:00 +12°C° 1.2 mm 10 mps 746 mmHg 68%
    15:00 +11°C° 1.2 mm 9 mps 746 mmHg 68%
    16:00 +11°C° 0.1 mm 8 mps 746 mmHg 64%
    17:00 +11°C° 0.1 mm 8 mps 747 mmHg 59%
    18:00 +11°C° 0.1 mm 7 mps 748 mmHg 54%
    19:00 +11°C° 0 mm 7 mps 748 mmHg 52%
    20:00 +10°C° 0 mm 7 mps 749 mmHg 50%
    21:00 +10°C° 0 mm 8 mps 749 mmHg 49%
    22:00 +10°C° 0 mm 7 mps 749 mmHg 50%
    23:00 +9°C° 0 mm 7 mps 749 mmHg 52%

    25 January, Friday

    Time Temperature Precipitation Wind Pressure Humidity
    00:00 +9°C° 0 mm 7 mps 750 mmHg 53%
    01:00 +9°C° 0 mm 7 mps 750 mmHg 55%
    02:00 +9°C° 0 mm 7 mps 750 mmHg 56%
    03:00 +9°C° 0 mm 7 mps 750 mmHg 57%
    04:00 +9°C° 0 mm 8 mps 750 mmHg 57%
    05:00 +9°C° 0 mm 8 mps 750 mmHg 57%
    06:00 +7°C° 0 mm 9 mps 750 mmHg 57%
    07:00 +7°C° 0 mm 9 mps 751 mmHg 56%
    08:00 +8°C° 0 mm 9 mps 752 mmHg 55%
    09:00 +8°C° 0 mm 9 mps 753 mmHg 54%
    10:00 +9°C° 0 mm 8 mps 753 mmHg 52%
    11:00 +10°C° 0 mm 8 mps 753 mmHg 50%
    12:00 +10°C° 0 mm 7 mps 754 mmHg 48%
    13:00 +10°C° 0 mm 6 mps 754 mmHg 49%
    14:00 +11°C° 0 mm 4 mps 754 mmHg 50%
    15:00 +11°C° 0 mm 3 mps 754 mmHg 52%
    16:00 +10°C° 0 mm 3 mps 755 mmHg 55%
    17:00 +10°C° 0 mm 2 mps 755 mmHg 59%
    18:00 +9°C° 0 mm 2 mps 756 mmHg 63%
    19:00 +9°C° 0 mm 1 mps 756 mmHg 64%
    20:00 +9°C° 0 mm 1 mps 756 mmHg 65%
    21:00 +9°C° 0 mm 1 mps 757 mmHg 66%
    22:00 +8°C° 0 mm 1 mps 757 mmHg 65%
    23:00 +8°C° 0 mm 1 mps 757 mmHg 65%
    Show more